Flag for Germany Weather past 2 weeks in Eisenhüttenstadt, Brandenburg, Germany

Now
57 °F

Passing clouds.


Feels Like: 57 °F
Forecast: 51 / 67 °F
Wind: 3 mph from Northeast

Location: Lindenberg


UV Index: 3 (Moderate)

Visibility: 9 mi


Pressure: 29.93 "Hg

Humidity: 73%

Dew point: 48 °F

Location of EisenhüttenstadtLocation

Historic Weather in Eisenhüttenstadt

°F

Eisenhüttenstadt temperature yesterday

Maximum temperature yesterday: 69 °F (at 4:00 PM)
Minimum temperature yesterday: 35 °F (at 6:00 AM)
Average temperature yesterday: 53 °F

Past Weeks' High & Low Weather Summary

 TemperatureHumidityPressure
High69 °F (Apr 19, 4:00 PM)99% (Apr 12, 7:00 AM)30.43 "Hg (Apr 12, 7:00 AM)
Low33 °F (Apr 16, 7:00 AM)29% (Apr 16, 2:00 PM)29.69 "Hg (Apr 14, 1:00 PM)
Average49 °F73%30.02 "Hg
* Reported Apr 5 2:00 AM — Apr 20 2:00 AM, Eisenhüttenstadt, Weather by CustomWeather, © 2014

Note: Actual official high and low records may vary slightly from our data, if they occured in-between our weather recording intervals... More about our weather records

Advertising

Historic Weather Conditions — Data for Previous 24 hours

 ConditionsComfort  
Time TempWeatherWind HumidityBarometerVisibility
2:00 AM
Apr 20
57 °FPassing clouds.3 mph73%29.93 "Hg9 mi
1:00 AM59 °FPassing clouds.5 mph67%29.94 "Hg9 mi
12:00 AM61 °FPassing clouds.5 mph63%29.94 "Hg9 mi
11:00 PM
Apr 19
60 °FPassing clouds.5 mph67%29.95 "Hg7 mi
10:00 PM61 °FPassing clouds.5 mph62%29.95 "Hg7 mi
9:00 PM63 °FPassing clouds.3 mph57%29.95 "Hg7 mi
8:00 PM65 °FPartly sunny.3 mph50%29.94 "Hg9 mi
7:00 PM68 °FScattered clouds.5 mph45%29.94 "Hg12 mi
6:00 PM68 °FScattered clouds.5 mph47%29.95 "Hg12 mi
4:00 PM69 °FScattered clouds.3 mph53%29.96 "Hg11 mi
3:00 PM67 °FSunny.5 mph58%29.99 "Hg11 mi
2:00 PM65 °FSunny.3 mph63%30.01 "Hg7 mi
1:00 PM62 °FSunny.3 mph71%30.03 "Hg6 mi
12:00 PM58 °FSunny.3 mph70%30.04 "Hg6 mi
11:00 AM55 °FPassing clouds.3 mph77%30.05 "Hg6 mi
10:00 AM49 °FPartly sunny.2 mph82%30.05 "Hg6 mi
9:00 AM45 °FOvercast.5 mph87%30.05 "Hg5 mi
8:00 AM42 °FFog.3 mph97%30.05 "Hg4 mi
7:00 AM39 °FFog.2 mph99%30.06 "Hg2 mi
6:00 AM35 °FFog.2 mph98%30.05 "Hg2 mi
5:00 AM39 °FClear.2 mph97%30.05 "Hg9 mi
4:00 AM41 °FClear.3 mph95%30.04 "Hg12 mi
3:00 AM41 °FClear.2 mph95%30.04 "Hg12 mi
Weather by CustomWeather, © 2014

See weather overview